[[{"header":{"parameterUnit":"m.s-1","parameterCategory":1,"la1":30.2991,"la2":30.254,"lo1":-89.0895,"lo2":-89.0444,"dy":0.0017,"dx":0.0017,"nx":28,"ny":28,"refTime":"2025-02-08T09:00:00:Z","depth":0,"parameterNumber":2,"parameterNumberName":"U-component_of_WINDS"},"data":[0,0,0,0,0,0,0,0,0,0,0,0,0,0,0,0,0,0,0,0,0,0,0,0,0,0,0,0,0,0,0,0,0,0,0,0,0,0,0,0,0,0,0,0,0,0,0,0,0,0,0,0,0,0,0,0,0,0,-0.1531,-0.153,0,-0.1404,-0.1403,-0.1401,-0.1314,-0.1313,-0.1312,-0.1312,-0.118,-0.1177,-0.1174,0,0,0,0,0,0,0,0,0,0,0,0,0,-0.1696,-0.1693,-0.1531,-0.153,-0.1528,-0.1405,-0.1403,-0.1401,-0.1314,-0.1313,-0.1312,-0.1311,-0.1181,-0.1178,-0.1174,0,0,0,0,0,0,0,0,0,0,0,0,0,-0.1602,-0.1692,-0.1531,-0.1469,-0.1463,-0.1405,-0.1403,-0.1401,-0.1314,-0.1313,-0.1312,-0.1311,-0.1182,-0.1178,-0.1174,-0.1167,0,0,-0.1161,-0.1159,0,0,0,0,0,0,0,0,-0.1608,-0.1596,-0.148,-0.1474,-0.1466,-0.1374,-0.1413,-0.1322,-0.1314,-0.137,-0.1312,-0.131,-0.1245,-0.1236,-0.1214,-0.1161,-0.1155,-0.116,-0.1158,-0.1156,-0.1154,0,0,0,0,0,0,0,-0.1614,-0.1601,-0.1481,-0.1479,-0.147,-0.1448,-0.1433,-0.1395,-0.1315,-0.1365,-0.1359,-0.1345,-0.1241,-0.1218,-0.121,-0.1153,-0.116,-0.1156,-0.1154,-0.1152,-0.1088,-0.1089,0,0,0,0,0,0,-0.1631,-0.1607,-0.1485,-0.1477,-0.1536,-0.1445,-0.1429,-0.1404,-0.1315,-0.13,-0.1346,-0.1341,-0.1226,-0.1215,-0.1205,-0.1191,-0.1156,-0.1152,-0.1149,-0.1087,-0.1088,-0.1089,0,0,0,0,0,0,-0.1635,-0.1621,-0.149,-0.154,-0.1522,-0.1444,-0.1416,-0.1402,-0.138,-0.13,-0.1285,-0.1338,-0.1225,-0.1211,-0.1177,-0.1186,-0.115,-0.1146,-0.1086,-0.1087,-0.1089,-0.1164,0,0,0,0,0,0,-0.164,-0.1623,-0.162,-0.1541,-0.152,-0.1465,-0.1417,-0.1401,-0.1373,-0.1365,-0.1289,-0.1275,-0.1223,-0.1184,-0.1173,-0.1179,-0.1142,-0.1085,-0.1087,-0.1088,-0.1161,-0.1168,-0.1174,0,0,0,0,0,-0.1646,-0.1645,-0.162,-0.1606,-0.1514,-0.1465,-0.1453,-0.1394,-0.1374,-0.137,-0.1319,-0.1277,-0.1187,-0.1182,-0.1168,-0.1173,-0.1084,-0.1086,-0.1088,-0.1158,-0.1167,-0.1174,0,0,0,0,0,0,-0.1726,-0.1634,-0.1605,-0.1579,-0.1531,-0.1451,-0.1444,-0.1406,-0.1362,-0.1357,-0.1285,-0.1269,-0.1242,-0.1204,-0.12,-0.1162,-0.113,-0.113,-0.1188,-0.1196,-0.1202,-0.1212,-0.1139,0,0,0,0,0,-0.1742,-0.171,-0.1631,-0.1616,-0.1593,-0.1523,-0.1499,-0.1458,-0.1405,-0.1384,-0.1331,-0.1281,-0.1241,-0.1216,-0.1175,-0.1155,-0.1137,-0.1152,-0.1158,-0.1164,-0.1165,-0.1151,-0.1157,-0.1096,-0.1096,-0.1096,0,0,-0.1772,-0.1717,-0.1702,-0.163,-0.1588,-0.1557,-0.1506,-0.1475,-0.1451,-0.1379,-0.1344,-0.1303,-0.1242,-0.1216,-0.1201,-0.1183,-0.1178,-0.1167,-0.1172,-0.1169,-0.1154,-0.116,-0.1165,-0.1097,-0.1097,-0.1097,0,0,-0.1811,-0.1767,-0.1749,-0.1708,-0.1645,-0.1599,-0.1595,-0.1521,-0.1491,-0.1455,-0.14,-0.137,-0.1303,-0.1262,-0.1232,-0.1257,-0.1217,-0.1245,-0.1281,-0.1269,-0.1273,-0.1277,-0.1286,-0.129,-0.1246,-0.1246,-0.1246,0,-0.1856,-0.1807,-0.1745,-0.1717,-0.1688,-0.1622,-0.1604,-0.1567,-0.1494,-0.1474,-0.1455,-0.137,-0.1324,-0.1287,-0.1293,-0.1271,-0.1264,-0.1253,-0.1278,-0.1281,-0.1284,-0.1291,-0.1295,-0.125,-0.1249,-0.1249,-0.1249,0,-0.1866,-0.1833,-0.1827,-0.1759,-0.1728,-0.1705,-0.1639,-0.1615,-0.1577,-0.1533,-0.1496,-0.1439,-0.1386,-0.1374,-0.1336,-0.1331,-0.1322,-0.1292,-0.1258,-0.1295,-0.1301,-0.1303,-0.1255,-0.1254,-0.1253,-0.1252,0,0,-0.1953,-0.1851,-0.1849,-0.1818,-0.1744,-0.1716,-0.1691,-0.1639,-0.162,-0.1572,-0.1548,-0.1493,-0.1465,-0.1431,-0.1388,-0.1377,-0.14,-0.1348,-0.1345,-0.136,-0.1392,-0.1415,-0.142,-0.1374,-0.1374,-0.1374,-0.1397,0,-0.1981,-0.1931,-0.1875,-0.1845,-0.1813,-0.1751,-0.1728,-0.168,-0.1638,-0.1605,-0.1557,-0.152,-0.1485,-0.1464,-0.1451,-0.1401,-0.1406,-0.1398,-0.1351,-0.135,-0.1368,-0.1423,-0.1447,-0.1471,-0.1399,-0.1399,-0.1399,0,-0.2007,-0.1962,-0.193,-0.1859,-0.1843,-0.1824,-0.1772,-0.1741,-0.1686,-0.1655,-0.1619,-0.1572,-0.1542,-0.1513,-0.1469,-0.1465,-0.1442,-0.1415,-0.1414,-0.1408,-0.1377,-0.1418,-0.1478,-0.1482,-0.1402,-0.1402,-0.1402,0,-0.2074,-0.2005,-0.1977,-0.1952,-0.1868,-0.1856,-0.1821,-0.1764,-0.1736,-0.1691,-0.1672,-0.1624,-0.1597,-0.156,-0.1502,-0.1486,-0.1465,-0.1431,-0.1439,-0.1441,-0.1437,-0.1438,-0.1495,-0.1423,-0.1423,-0.1423,-0.1423,0,-0.2111,-0.2093,-0.2006,-0.1989,-0.1967,-0.1902,-0.1882,-0.1841,-0.1791,-0.1764,-0.1706,-0.1683,-0.1607,-0.1574,-0.1528,-0.15,-0.1488,-0.1462,-0.1451,-0.1468,-0.1471,-0.1452,-0.1449,-0.1423,-0.1423,-0.1423,-0.1423,0,-0.2182,-0.2123,-0.2087,-0.2011,-0.1992,-0.1979,-0.1914,-0.1894,-0.1849,-0.1816,-0.1804,-0.1733,-0.1691,-0.1629,-0.1569,-0.1538,-0.1516,-0.1497,-0.1535,-0.1528,-0.154,-0.154,-0.1586,-0.1589,-0.1516,-0.1516,-0.1517,0,-0.221,-0.2195,-0.2117,-0.2095,-0.2062,-0.2027,-0.1999,-0.1934,-0.1907,-0.1843,-0.1831,-0.1785,-0.1745,-0.1681,-0.1623,-0.1577,-0.1556,-0.1575,-0.1548,-0.1566,-0.1556,-0.1558,-0.1556,-0.1582,-0.1583,-0.1584,-0.1585,0,-0.2266,-0.2237,-0.2199,-0.2151,-0.2119,-0.2077,-0.2033,-0.2019,-0.1944,-0.1917,-0.1874,-0.1843,-0.1781,-0.1736,-0.1682,-0.1644,-0.1602,-0.1594,-0.1593,-0.1611,-0.1634,-0.1622,-0.1553,-0.1593,-0.1592,-0.1591,-0.1591,-0.1591,-0.2316,-0.23,-0.2243,-0.2202,-0.2162,-0.2122,-0.21,-0.2052,-0.2015,-0.1961,-0.1924,-0.1884,-0.1828,-0.1751,-0.1716,-0.1682,-0.1665,-0.1664,-0.1663,-0.1664,-0.1671,-0.1639,-0.1672,-0.1672,-0.1672,-0.1671,-0.1671,0,-0.2369,-0.2329,-0.2292,-0.2233,-0.2201,-0.2164,-0.2114,-0.2089,-0.2054,-0.2006,-0.1968,-0.1918,-0.1875,-0.1814,-0.1765,-0.175,-0.173,-0.174,-0.174,-0.1733,-0.1689,-0.1695,-0.1757,-0.1757,-0.1757,-0.1757,-0.1757,-0.1757,-0.2393,-0.2364,-0.2329,-0.2279,-0.2239,-0.2199,-0.2173,-0.2136,-0.2097,-0.2045,-0.2008,-0.1969,-0.1916,-0.1863,-0.1821,-0.1804,-0.1789,-0.1805,-0.1783,-0.1743,-0.1736,-0.1728,-0.1733,-0.1803,-0.1803,-0.1829,-0.1829,-0.1829]},{"header":{"parameterUnit":"m.s-1","parameterCategory":1,"la1":30.2991,"la2":30.254,"lo1":-89.0895,"lo2":-89.0444,"dy":0.0017,"dx":0.0017,"nx":28,"ny":28,"refTime":"2025-02-08T09:00:00:Z","depth":0,"parameterNumber":3,"parameterNumberName":"V-component_of_WINDS"},"data":[0,0,0,0,0,0,0,0,0,0,0,0,0,0,0,0,0,0,0,0,0,0,0,0,0,0,0,0,0,0,0,0,0,0,0,0,0,0,0,0,0,0,0,0,0,0,0,0,0,0,0,0,0,0,0,0,0,0,2.5401,2.5401,0,2.5406,2.5406,2.5406,2.5441,2.5441,2.5442,2.5443,2.5444,2.5444,2.5443,0,0,0,0,0,0,0,0,0,0,0,0,0,2.5417,2.5416,2.5401,2.5401,2.5401,2.5406,2.5406,2.5406,2.544,2.5441,2.5443,2.5443,2.5445,2.5444,2.5443,0,0,0,0,0,0,0,0,0,0,0,0,0,2.5415,2.5416,2.5401,2.5419,2.542,2.5406,2.5406,2.5406,2.544,2.5442,2.5443,2.5444,2.5445,2.5444,2.5443,2.541,0,0,2.5439,2.5439,0,0,0,0,0,0,0,0,2.5415,2.5414,2.5416,2.5417,2.5419,2.5424,2.5412,2.5408,2.544,2.5433,2.5443,2.5445,2.5436,2.5436,2.5434,2.541,2.541,2.5439,2.5438,2.5438,2.5438,0,0,0,0,0,0,0,2.5415,2.5414,2.5403,2.5416,2.5418,2.5425,2.5426,2.5412,2.5427,2.5433,2.5436,2.5436,2.5437,2.5435,2.5434,2.541,2.5439,2.5438,2.5437,2.5437,2.5361,2.536,0,0,0,0,0,0,2.5413,2.5414,2.5403,2.5403,2.542,2.5424,2.5425,2.5421,2.5427,2.543,2.5435,2.5438,2.5436,2.5436,2.5434,2.5397,2.5438,2.5437,2.5436,2.5362,2.5361,2.5359,0,0,0,0,0,0,2.5413,2.5412,2.5402,2.5409,2.5409,2.5423,2.5418,2.5421,2.5418,2.5429,2.5431,2.543,2.5437,2.5436,2.5416,2.5397,2.5436,2.5435,2.5364,2.5362,2.536,2.5322,0,0,0,0,0,0,2.5413,2.5411,2.54,2.5409,2.5408,2.5385,2.5416,2.542,2.5417,2.542,2.5425,2.5427,2.5438,2.5418,2.5415,2.5397,2.5434,2.5366,2.5363,2.5361,2.5325,2.5319,2.5313,0,0,0,0,0,2.5414,2.5388,2.5399,2.5398,2.5394,2.5384,2.5383,2.5398,2.5415,2.5403,2.541,2.5426,2.54,2.5416,2.5413,2.5394,2.5367,2.5364,2.5361,2.5327,2.532,2.5314,0,0,0,0,0,0,2.5374,2.5389,2.5402,2.5378,2.538,2.539,2.5375,2.539,2.5386,2.5389,2.5407,2.5407,2.5385,2.5388,2.5404,2.5363,2.5386,2.5383,2.5362,2.5355,2.5349,2.5348,2.5433,0,0,0,0,0,2.5364,2.5355,2.5368,2.5346,2.5346,2.5361,2.5357,2.5368,2.537,2.537,2.5376,2.5376,2.5368,2.5362,2.5355,2.5326,2.5327,2.5311,2.5306,2.5301,2.5297,2.5282,2.5275,2.5349,2.5349,2.5349,0,0,2.534,2.5347,2.534,2.5338,2.5341,2.5331,2.5361,2.5349,2.5341,2.5368,2.535,2.5354,2.5355,2.5331,2.5321,2.5332,2.5277,2.5297,2.5293,2.5292,2.5278,2.5271,2.5265,2.5347,2.5348,2.5348,0,0,2.5291,2.5296,2.5278,2.5281,2.5285,2.5295,2.5291,2.5299,2.5303,2.5286,2.5307,2.5297,2.5283,2.5283,2.5281,2.5235,2.5249,2.5232,2.5202,2.5187,2.5181,2.5176,2.5159,2.5152,2.5228,2.5228,2.5228,0,2.526,2.5247,2.5267,2.5254,2.5252,2.5279,2.526,2.5261,2.5262,2.526,2.5274,2.5257,2.526,2.5236,2.5225,2.5223,2.5218,2.5231,2.5181,2.5176,2.5171,2.5155,2.5148,2.5226,2.5226,2.5227,2.5227,0,2.5209,2.52,2.5185,2.5187,2.5184,2.5168,2.5184,2.5179,2.5191,2.52,2.5182,2.5186,2.5181,2.5176,2.5188,2.5154,2.5161,2.5178,2.5201,2.5162,2.5146,2.514,2.5223,2.5224,2.5224,2.5225,0,0,2.5134,2.5149,2.5143,2.5145,2.5152,2.5145,2.513,2.5127,2.5121,2.5122,2.5109,2.5098,2.5113,2.5111,2.5123,2.511,2.5072,2.5128,2.5128,2.5117,2.5035,2.5022,2.5014,2.5083,2.5082,2.5081,2.5035,0,2.5087,2.5064,2.5082,2.5055,2.5047,2.5073,2.506,2.5063,2.507,2.5063,2.5072,2.5063,2.5085,2.5084,2.5072,2.5079,2.5056,2.5083,2.507,2.5069,2.5068,2.5007,2.4992,2.4948,2.5029,2.5028,2.5027,0,2.5028,2.5028,2.5001,2.5012,2.5009,2.4997,2.4996,2.4989,2.4993,2.4999,2.4998,2.5014,2.4999,2.5024,2.5004,2.5022,2.5018,2.5021,2.502,2.5018,2.5045,2.5002,2.4934,2.4927,2.5018,2.5019,2.502,0,2.4975,2.4968,2.4951,2.4952,2.4964,2.4955,2.4959,2.4964,2.4961,2.496,2.4958,2.4954,2.4952,2.4948,2.4962,2.4979,2.494,2.4966,2.4944,2.4944,2.4933,2.4933,2.4863,2.4933,2.4933,2.4933,2.4933,0,2.492,2.4902,2.4928,2.4917,2.4898,2.4919,2.4899,2.4905,2.491,2.4901,2.4923,2.4913,2.4933,2.4925,2.4936,2.4918,2.4916,2.492,2.4923,2.4918,2.4917,2.4914,2.4917,2.4931,2.4932,2.4932,2.4932,0,2.4856,2.4873,2.4856,2.487,2.4873,2.4858,2.4869,2.4859,2.4869,2.4857,2.4855,2.487,2.4863,2.4877,2.487,2.4878,2.4852,2.486,2.4851,2.4853,2.483,2.4831,2.4754,2.4744,2.4821,2.482,2.482,0,2.4819,2.4807,2.4819,2.4815,2.4819,2.4812,2.481,2.483,2.4826,2.4831,2.482,2.4815,2.4811,2.4797,2.4807,2.4802,2.4809,2.4783,2.4808,2.4804,2.4808,2.4808,2.4806,2.4777,2.4776,2.4775,2.4774,0,2.4751,2.4761,2.4757,2.4757,2.4754,2.4754,2.4756,2.4751,2.4773,2.4767,2.4761,2.4758,2.4753,2.4746,2.4744,2.4748,2.4764,2.4767,2.4761,2.4755,2.4749,2.4751,2.4835,2.4768,2.4768,2.4769,2.4769,2.477,2.4699,2.4689,2.4697,2.4693,2.4697,2.4698,2.469,2.47,2.4695,2.4693,2.4705,2.4696,2.47,2.47,2.4701,2.4694,2.4705,2.4697,2.4695,2.4693,2.4689,2.4752,2.4693,2.4694,2.4694,2.4694,2.4694,0,2.4632,2.4639,2.4635,2.4637,2.4634,2.4652,2.4656,2.4651,2.4643,2.4646,2.4643,2.4635,2.463,2.464,2.4636,2.4628,2.4635,2.4626,2.4626,2.4627,2.4679,2.4684,2.462,2.462,2.462,2.462,2.462,2.462,2.4596,2.4581,2.4591,2.4577,2.4584,2.4576,2.4576,2.4578,2.4581,2.4572,2.4568,2.4576,2.4582,2.4579,2.4574,2.4578,2.4574,2.4562,2.4568,2.4616,2.4623,2.463,2.4634,2.4562,2.4562,2.4516,2.4516,2.4515]}]]